GW0064 Weather Reports


Display with metric or nautical units.
time (UTC)temp
F
wind
direction
speed
MPH
gust
MPH
rain 1hr
in
rain 24hr
in
rain mn
in
humidity
%
barometer
mb
20260905031504 80 182 0.0 1.0 0.00 0.00 0.00 86 1014.4
20260905031003 80 162 0.0 2.0 0.00 0.00 0.00 86 1014.4
20260905030503 80 161 1.0 2.0 0.00 0.00 0.00 85 1014.4
20260905030006 80 163 1.0 2.0 0.00 0.00 0.00 85 1014.3
20260905025003 81 184 0.0 1.0 0.00 0.00 0.00 84 1014.4
20260905024503 81 184 0.0 2.0 0.00 0.00 0.00 84 1014.4
20260905024003 81 184 1.0 3.0 0.00 0.00 0.00 84 1014.4
20260905023506 81 188 1.0 3.0 0.00 0.00 0.00 84 1014.3
20260905023004 81 162 2.0 4.0 0.00 0.00 0.00 84 1014.2
20260905022503 81 176 3.0 4.0 0.00 0.00 0.00 84 1014.2
20260905022003 81 165 2.0 4.0 0.00 0.00 0.00 84 1014.2
20260905021502 81 173 2.0 3.0 0.00 0.00 0.00 84 1014.2
20260905021004 82 191 2.0 3.0 0.00 0.00 0.00 83 1014.2
20260905020005 82 174 2.0 3.0 0.00 0.00 0.00 83 1014.2
20260905015503 82 169 2.0 3.0 0.00 0.00 0.00 83 1014.1
20260905015003 82 171 2.0 3.0 0.00 0.00 0.00 82 1014.2
20260905014502 82 158 2.0 3.0 0.00 0.00 0.00 82 1014.0
20260905014002 82 169 2.0 3.0 0.00 0.00 0.00 82 1014.0
20260905013502 83 164 2.0 4.0 0.00 0.00 0.00 82 1014.1
20260905013002 83 166 2.0 4.0 0.00 0.00 0.00 81 1014.0
20260905012503 83 143 2.0 4.0 0.00 0.00 0.00 81 1014.0
20260905012002 83 158 2.0 3.0 0.00 0.00 0.00 81 1013.9
20260905011501 83 152 2.0 4.0 0.00 0.00 0.00 81 1013.9
20260905011001 83 152 2.0 4.0 0.00 0.00 0.00 80 1013.9
20260905010504 83 173 3.0 5.0 0.00 0.00 0.00 80 1013.9
20260905005502 84 168 2.0 5.0 0.00 0.00 0.00 79 1013.8
20260905005003 84 146 4.0 5.0 0.00 0.00 0.00 79 1013.7
20260905004501 84 168 3.0 5.0 0.00 0.00 0.00 78 1013.8
20260905003501 84 129 1.0 3.0 0.00 0.00 0.00 77 1013.8
20260905003003 84 139 1.0 4.0 0.00 0.00 0.00 76 1013.8
20260905002501 85 146 2.0 4.0 0.00 0.00 0.00 76 1013.8
20260905001501 85 155 2.0 6.0 0.00 0.00 0.00 74 1013.8
20260905000502 86 132 3.0 6.0 0.00 0.00 0.00 73 1013.9
20260905000005 87 136 4.0 6.0 0.00 0.00 0.00 73 1013.9
20260904235502 87 136 3.0 6.0 0.00 0.00 0.00 73 1013.9
20260904234502 88 130 3.0 7.0 0.00 0.00 0.00 70 1013.8
20260904234002 89 132 3.0 7.0 0.00 0.00 0.00 69 1013.8
20260904233503 89 87 3.0 5.0 0.00 0.00 0.00 67 1013.8
20260904233002 89 144 2.0 4.0 0.00 0.00 0.00 67 1013.9
20260904232003 89 138 4.0 6.0 0.00 0.00 0.00 66 1013.8
20260904231501 90 138 3.0 6.0 0.00 0.00 0.00 66 1013.8
20260904230504 90 121 3.0 5.0 0.00 0.00 0.00 66 1013.8
20260904230004 91 138 2.0 5.0 0.00 0.00 0.00 66 1013.8
20260904225501 91 121 1.0 5.0 0.00 0.00 0.00 65 1013.8
20260904225003 92 145 2.0 4.0 0.00 0.00 0.00 64 1013.7
20260904224502 92 67 2.0 4.0 0.00 0.00 0.00 64 1013.7
20260904224001 92 141 2.0 4.0 0.00 0.00 0.00 62 1013.7
20260904223504 92 143 2.0 4.0 0.00 0.00 0.00 63 1013.6
20260904223002 92 37 2.0 5.0 0.00 0.00 0.00 63 1013.7
20260904222502 92 51 2.0 5.0 0.00 0.00 0.00 64 1013.7
20260904222002 92 124 2.0 4.0 0.00 0.00 0.00 63 1013.7
20260904221502 92 70 0.0 5.0 0.00 0.00 0.00 62 1013.6
20260904221001 92 58 2.0 5.0 0.00 0.00 0.00 61 1013.6
20260904220006 91 129 3.0 6.0 0.00 0.00 0.00 62 1013.6
20260904215503 91 137 4.0 6.0 0.00 0.00 0.00 62 1013.6
20260904215001 92 151 4.0 6.0 0.00 0.00 0.00 62 1013.6
20260904214504 91 152 3.0 5.0 0.00 0.00 0.00 62 1013.6
20260904214002 91 129 2.0 7.0 0.00 0.00 0.00 64 1013.6
20260904213001 90 79 3.0 6.0 0.00 0.00 0.00 66 1013.6
20260904212502 90 81 3.0 8.0 0.00 0.00 0.00 67 1013.6
20260904212001 90 49 2.0 5.0 0.00 0.00 0.00 67 1013.6
20260904211501 90 84 2.0 8.0 0.00 0.00 0.00 68 1013.5
20260904211004 90 116 5.0 9.0 0.00 0.00 0.00 66 1013.4
20260904210006 91 135 4.0 9.0 0.00 0.00 0.00 61 1013.4
20260904205503 93 151 6.0 11.0 0.00 0.00 0.00 57 1013.5
20260904204502 95 54 1.0 4.0 0.00 0.00 0.00 55 1013.6
20260904204001 95 57 1.0 4.0 0.00 0.00 0.00 55 1013.7
20260904203502 94 6 0.0 3.0 0.00 0.00 0.00 56 1013.9
20260904202501 93 266 1.0 4.0 0.00 0.00 0.00 58 1013.8
20260904201501 93 282 4.0 7.0 0.00 0.00 0.00 57 1013.9
20260904201004 93 230 1.0 4.0 0.00 0.00 0.00 57 1014.2
20260904200502 93 82 2.0 4.0 0.00 0.00 0.00 55 1014.3
20260904200004 92 49 1.0 6.0 0.00 0.00 0.00 58 1014.3
20260904195501 92 32 2.0 8.0 0.00 0.00 0.00 59 1014.4
20260904195002 93 349 3.0 9.0 0.00 0.00 0.00 59 1014.5
20260904194501 92 48 5.0 11.0 0.00 0.00 0.00 58 1014.8
20260904194001 92 37 6.0 11.0 0.00 0.00 0.00 59 1014.9
20260904193501 93 29 5.0 11.0 0.00 0.00 0.00 58 1015.0
20260904193004 92 34 6.0 12.0 0.00 0.00 0.00 56 1015.0
20260904192502 92 327 5.0 12.0 0.00 0.00 0.00 57 1014.9
20260904192001 91 314 5.0 9.0 0.00 0.00 0.00 58 1014.9
20260904191501 90 326 5.0 10.0 0.00 0.00 0.00 60 1015.0
20260904191003 91 11 6.0 11.0 0.00 0.00 0.00 59 1015.2
20260904190501 92 345 6.0 11.0 0.00 0.00 0.00 57 1015.3
20260904190004 93 23 4.0 7.0 0.00 0.00 0.00 57 1015.4
20260904185501 94 297 2.0 6.0 0.00 0.00 0.00 58 1015.5
20260904184501 93 294 2.0 7.0 0.00 0.00 0.00 57 1015.6
20260904183503 92 302 3.0 7.0 0.00 0.00 0.00 56 1015.7
20260904183001 93 277 5.0 9.0 0.00 0.00 0.00 54 1015.7
20260904182502 93 289 6.0 11.0 0.00 0.00 0.00 53 1015.6
20260904182003 93 251 6.0 11.0 0.00 0.00 0.00 53 1015.6
20260904181501 93 264 5.0 10.0 0.00 0.00 0.00 54 1015.6
20260904181001 92 268 6.0 11.0 0.00 0.00 0.00 54 1015.6
20260904180501 92 245 7.0 11.0 0.00 0.00 0.00 53 1015.6
20260904180005 92 274 6.0 11.0 0.00 0.00 0.00 52 1015.7
20260904175501 92 276 7.0 11.0 0.00 0.00 0.00 53 1015.8
20260904175002 91 269 7.0 11.0 0.00 0.00 0.00 54 1015.9
20260904174502 91 236 6.0 10.0 0.00 0.00 0.00 54 1015.9
20260904174002 91 273 4.0 11.0 0.00 0.00 0.00 56 1015.8
20260904173502 91 250 4.0 10.0 0.00 0.00 0.00 54 1015.9
20260904172502 90 283 3.0 6.0 0.00 0.00 0.00 57 1016.0
20260904171502 89 273 3.0 5.0 0.00 0.00 0.00 64 1016.2
20260904171001 89 277 3.0 5.0 0.00 0.00 0.00 65 1016.1
20260904170501 89 274 3.0 5.0 0.00 0.00 0.00 62 1016.2
20260904170006 88 304 1.0 3.0 0.00 0.00 0.00 66 1016.2
20260904165501 87 276 1.0 6.0 0.00 0.00 0.00 68 1016.3
20260904165003 87 36 3.0 9.0 0.00 0.00 0.00 67 1016.4
20260904164501 86 23 3.0 13.0 0.00 0.00 0.00 66 1016.6
20260904164002 86 276 8.0 15.0 0.00 0.00 0.00 62 1016.9
20260904163503 88 300 7.0 15.0 0.00 0.00 0.00 64 1016.7
20260904163001 89 255 9.0 15.0 0.00 0.00 0.00 61 1016.7
20260904162503 91 298 9.0 13.0 0.00 0.00 0.00 59 1016.6
20260904162001 92 276 7.0 11.0 0.00 0.00 0.00 61 1016.6
20260904161502 91 285 7.0 11.0 0.00 0.00 0.00 59 1016.6
20260904161001 91 284 7.0 10.0 0.00 0.00 0.00 61 1016.5
20260904160501 91 281 6.0 10.0 0.00 0.00 0.00 62 1016.5
20260904154501 90 285 4.0 10.0 0.00 0.00 0.00 65 1016.2
20260904154001 89 239 6.0 12.0 0.00 0.00 0.00 62 1016.1
20260904152502 89 290 4.0 11.0 0.00 0.00 0.00 64 1016.3
20260904152002 89 238 5.0 9.0 0.00 0.00 0.00 64 1016.3
20260904151002 88 262 3.0 9.0 0.00 0.00 0.00 66 1016.4
20260904150502 88 271 4.0 10.0 0.00 0.00 0.00 67 1016.4
20260904150004 88 220 5.0 9.0 0.00 0.00 0.00 69 1016.4
20260904145503 87 276 7.0 9.0 0.00 0.00 0.00 67 1016.5
20260904144501 87 274 6.0 10.0 0.00 0.00 0.00 68 1016.4
20260904144003 0 265 6.0 10.0 0.00 0.00 0.00 67 1016.4
20260904143502 0 257 6.0 12.0 0.00 0.00 0.00 1016.4
20260904143003 0 272 5.0 12.0 0.00 0.00 0.00 1016.3
20260904142501 0 271 6.0 10.0 0.00 0.00 0.00 1016.3
20260904142003 0 282 5.0 10.0 0.00 0.00 0.00 100 1016.3
20260904141501 0 262 5.0 8.0 0.00 0.00 0.00 100 1016.3
20260904141003 0 272 6.0 10.0 0.00 0.00 0.00 1016.3
20260904140004 0 290 5.0 8.0 0.00 0.00 0.00 1016.2
20260904135502 0 229 5.0 8.0 0.00 0.00 0.00 1016.2
20260904134501 0 278 4.0 7.0 0.00 0.00 0.00 1016.2
20260904133501 0 266 4.0 7.0 0.00 0.00 0.00 1016.1
20260904132001 0 222 5.0 7.0 0.00 0.00 0.00 1016.0
20260904131501 0 256 5.0 6.0 0.00 0.00 0.00 1016.0
20260904131003 0 231 3.0 5.0 0.00 0.00 0.00 1016.1
20260904130504 0 273 2.0 4.0 0.00 0.00 0.00 1016.1
20260904130004 0 236 1.0 4.0 0.00 0.00 0.00 1016.1
20260904125501 79 221 3.0 4.0 0.00 0.00 0.00 100 1016.2
20260904125001 0 224 2.0 4.0 0.00 0.00 0.00 1016.1
20260904124500 0 245 3.0 4.0 0.00 0.00 0.00 1016.1
20260904124000 0 264 2.0 3.0 0.00 0.00 0.00 1016.1
20260904123501 0 257 1.0 3.0 0.00 0.00 0.00 1016.0
20260904123001 0 271 1.0 4.0 0.00 0.00 0.00 1016.1
20260904122500 0 237 2.0 4.0 0.00 0.00 0.00 1016.1
20260904122002 0 219 2.0 3.0 0.00 0.00 0.00 1015.9
20260904121500 0 222 1.0 3.0 0.00 0.00 0.00 1015.9
20260904120500 0 242 1.0 2.0 0.00 0.00 0.00 1015.9
20260904120006 0 236 1.0 3.0 0.00 0.00 0.00 1015.9
20260904114501 0 222 1.0 3.0 0.00 0.00 0.00 1015.6
20260904114001 0 216 1.0 4.0 0.00 0.00 0.00 1015.5
20260904113500 0 235 2.0 4.0 0.00 0.00 0.00 1015.3
20260904113001 0 230 2.0 4.0 0.00 0.00 0.00 1015.0
20260904112002 0 229 1.0 4.0 0.00 0.00 0.00 1015.1
20260904111500 0 238 2.0 4.0 0.00 0.00 0.00 1015.0
20260904111002 0 234 1.0 4.0 0.00 0.00 0.00 1 1014.9
20260904110500 0 231 2.0 4.0 0.00 0.00 0.00 1014.9
20260904105501 0 220 2.0 4.0 0.00 0.00 0.00 1014.9
20260904105002 0 207 1.0 3.0 0.00 0.00 0.00 1014.8
20260904104500 0 209 0.0 3.0 0.00 0.00 0.00 1014.9
20260904104003 0 208 1.0 3.0 0.00 0.00 0.00 1014.9
20260904102002 0 219 0.0 0.0 0.00 0.00 0.00 1014.9
20260904101000 0 159 0.0 0.0 0.00 0.00 0.00 1014.9
20260904100002 0 165 0.0 0.0 0.00 0.00 0.00 1014.8
20260904095501 0 162 0.0 0.0 0.00 0.00 0.00 100 1014.9
20260904095000 76 165 0.0 0.0 0.00 0.00 0.00 100 1014.9
20260904094500 0 193 0.0 1.0 0.00 0.00 0.00 81 1014.8
20260904094002 0 203 0.0 1.0 0.00 0.00 0.00 1014.8
20260904093501 0 203 0.0 2.0 0.00 0.00 0.00 80 1014.8
20260904093001 77 210 0.0 3.0 0.00 0.00 0.00 79 1014.7
20260904092502 77 162 1.0 4.0 0.00 0.00 0.00 79 1014.7
20260904092002 77 199 2.0 4.0 0.00 0.00 0.00 100 1014.7
20260904091500 77 224 1.0 3.0 0.00 0.00 0.00 78 1014.6
20260904091001 0 206 2.0 3.0 0.00 0.00 0.00 1014.6
20260904090500 0 199 1.0 3.0 0.00 0.00 0.00 1014.6
20260904085503 0 220 0.0 0.0 0.00 0.00 0.00 1014.6
20260904085001 0 219 0.0 0.0 0.00 0.00 0.00 1014.6
20260904084500 0 212 0.0 0.0 0.00 0.00 0.00 1014.5
20260904084000 78 229 0.0 0.0 0.00 0.00 0.00 100 1014.5
20260904083501 78 229 0.0 0.0 0.00 0.00 0.00 1014.4
20260904083000 78 209 0.0 0.0 0.00 0.00 0.00 1014.5
20260904082500 0 222 0.0 2.0 0.00 0.00 0.00 73 1014.5
20260904082000 78 168 0.0 3.0 0.00 0.00 0.00 72 1014.5
20260904081500 0 216 2.0 3.0 0.00 0.00 0.00 1014.5
20260904081001 0 232 1.0 2.0 0.00 0.00 0.00 1014.6
20260904080004 0 230 2.0 4.0 0.00 0.00 0.00 1014.6
20260904075500 0 218 1.0 5.0 0.00 0.00 0.00 1014.7
20260904075003 78 179 3.0 9.0 0.00 0.00 0.00 74 1014.8
20260904074500 78 190 4.0 9.0 0.00 0.00 0.00 77 1014.9
20260904073501 77 158 2.0 6.0 0.00 0.00 0.00 1015.2
20260904073001 0 161 3.0 6.0 0.00 0.00 0.00 1015.3
20260904072501 76 149 1.0 3.0 0.00 0.00 0.00 87 1015.4
20260904072002 76 152 0.0 0.0 0.00 0.00 0.00 87 1015.3
20260904071502 0 142 0.0 0.0 0.00 0.00 0.00 1015.3
20260904071000 0 142 0.0 0.0 0.00 0.00 0.00 1015.3
20260904070500 0 142 0.0 0.0 0.00 0.00 0.00 1015.3
20260904070004 76 142 0.0 0.0 0.00 0.00 0.00 1015.3
20260904065501 0 143 0.0 0.0 0.00 0.00 0.00 1015.4
20260904064500 76 143 0.0 1.0 0.00 0.00 0.00 86 1015.6
20260904063500 0 142 0.0 1.0 0.00 0.00 0.00 1015.6
20260904063000 0 142 1.0 2.0 0.00 0.00 0.00 1 1015.6
20260904062502 76 146 1.0 2.0 0.00 0.00 0.00 1015.6
20260904062001 0 137 1.0 2.0 0.00 0.00 0.00 1015.7
20260904061500 0 136 1.0 1.0 0.00 0.00 0.00 1015.7
20260904060500 0 136 0.0 0.0 0.00 0.00 0.00 1015.8
20260904054501 0 135 0.0 0.0 0.00 0.00 0.00 1015.9
20260904054000 0 135 0.0 0.0 0.00 0.00 0.00 1015.9
20260904053500 77 135 0.0 0.0 0.00 0.00 0.00 1015.8
20260904053000 0 135 0.0 0.0 0.00 0.00 0.00 1015.9
20260904052504 0 135 0.0 3.0 0.00 0.00 0.00 1015.9
20260904052000 78 136 1.0 4.0 0.00 0.00 0.00 100 1015.9
20260904051500 78 140 1.0 4.0 0.00 0.00 0.00 83 1015.9
20260904051002 78 136 1.0 3.0 0.00 0.00 0.00 100 1015.8
20260904050501 78 138 2.0 4.0 0.00 0.00 0.00 83 1015.9
20260904050005 78 153 2.0 4.0 0.00 0.00 0.00 83 1015.8
20260904045503 78 136 0.0 2.0 0.00 0.00 0.00 1015.8
20260904045001 78 131 0.0 3.0 0.00 0.00 0.00 83 1015.8
20260904044002 78 131 2.0 3.0 0.00 0.00 0.00 83 1015.7
20260904043503 78 133 1.0 3.0 0.00 0.00 0.00 83 1015.8
20260904043001 78 134 1.0 3.0 0.00 0.00 0.00 83 1015.7
20260904042502 78 142 2.0 3.0 0.00 0.00 0.00 83 1015.8
20260904042002 78 139 2.0 3.0 0.00 0.00 0.00 82 1015.7
20260904041003 78 135 0.0 5.0 0.00 0.00 0.00 81 1015.7
20260904040503 78 129 3.0 5.0 0.00 0.00 0.00 81 1015.6
20260904040008 78 136 2.0 5.0 0.00 0.00 0.00 81 1015.5
20260904035502 78 137 3.0 5.0 0.00 0.00 0.00 81 1015.6
20260904035002 78 127 3.0 6.0 0.00 0.00 0.00 80 1015.6
20260904034502 78 134 4.0 6.0 0.00 0.00 0.00 80 1015.6
20260904034003 78 135 4.0 7.0 0.00 0.00 0.00 80 1015.5
20260904033003 79 131 3.0 7.0 0.00 0.00 0.00 79 1015.6
20260904032502 79 101 3.0 7.0 0.00 0.00 0.00 79 1015.5
20260904032004 79 120 4.0 6.0 0.00 0.00 0.00 79 1015.6